Regional Weather Roundup
Issued by NWS

Home | Current Version | Previous Version | Text Only | Print | Product List | Glossary Off
Versions: 1 2 3 4 5 6 7 8 9 10 11 12 13 14 15 16 17 18 19 20 21 22 23 24 25 26 27 28 29 30 31 32 33 34 35 36 37 38 39 40 41 42 43 44 45 46 47 48 49 50

000
ASUS43 KIND 100009
RWRIN

WEATHER ROUNDUP FOR INDIANA
NATIONAL WEATHER SERVICE INDIANAPOLIS IN
800 PM EDT WED JUL 09 2014

NOTE: "FAIR" INDICATES FEW OR NO CLOUDS BELOW 12,000 FEET WITH NO
SIGNIFICANT WEATHER AND/OR OBSTRUCTIONS TO VISIBILITY.

* - STATION DOES NOT REPORT WEATHER SUCH AS PRECIPITATION OR FOG.

+ - STATION NOT QUALITY CONTROLLED BY THE NATIONAL WEATHER SERVICE.
    USE DATA WITH CAUTION...ESPECIALLY DEWPOINT AND RELATIVE
    HUMIDITY OBSERVATIONS.

INZ001>003-010>013-019-020-100100-
NORTHWEST INDIANA

CITY           SKY/WX    TMP DP  RH WIND       PRES   REMARKS
GARY /AIRPORT/ MOSUNNY   73  55  53 NE5       29.99R
KNOX *+        PTSUNNY   73  56  57 N10       29.98R
LA PORTE +     SUNNY     71  54  54 N9        30.00R
6HR MIN TEMP:  71; 6HR MAX TEMP:  75;

MICHIGAN CITY+ SUNNY     70  54  56 N5        30.00S
MONTICELLO +   SUNNY     76  59  56 NW7       29.97R
RENSSELAER +   SUNNY     75  55  50 NW5       29.98R
VALPARAISO     SUNNY     73  54  51 N8        29.99R
6HR MIN TEMP:  73; 6HR MAX TEMP:  78;


$$

LMZ046-743>745-100100-
SOUTHERN LAKE MICHIGAN

STATION/POSITION TIME  TEMP WIND        PRES
                       AIR  DIR/SP/G
                 (UTC) (F)  (DEG/KT/KT) (MB)
MICHIGAN CITY    0000   69   30/  9/ 10   N/A

$$

INZ004-005-014>016-021>024-100100-
NORTH CENTRAL INDIANA

CITY           SKY/WX    TMP DP  RH WIND       PRES   REMARKS
ELKHART        SUNNY     72  54  53 NW7       29.99
GOSHEN         SUNNY     73  55  53 N9        29.98R
6HR MIN TEMP:  72; 6HR MAX TEMP:  77;

LOGANSPORT +   MOSUNNY   73  55  53 CALM      29.98S
PERU/GRISSOM   PTSUNNY   76  61  60 N6        29.98R
6HR MIN TEMP:  75; 6HR MAX TEMP:  80;

ROCHESTER +    MOSUNNY   73  57  56 N5        29.98S
SOUTH BEND     SUNNY     73  55  53 N14       29.99S
6HR MIN TEMP:  73; 6HR MAX TEMP:  77;

WARSAW +       MOSUNNY   72  55  56 N3        29.98R

$$

INZ006>009-017-018-025>027-100100-
NORTHEAST INDIANA

CITY           SKY/WX    TMP DP  RH WIND       PRES   REMARKS
ANGOLA *+      SUNNY     73  64  73 N5        29.98S
AUBURN +       SUNNY     73  52  46 N10       29.99R
FORT WAYNE     MOSUNNY   73  55  53 NW7       29.97R
6HR MIN TEMP:  73; 6HR MAX TEMP:  81;

HUNTINGTON +   SUNNY     73  56  54 N3        29.97R
6HR MIN TEMP:  73; 6HR MAX TEMP:  79;


$$

INZ028-029-035-036-043>045-051>053-100100-
WEST CENTRAL INDIANA

CITY           SKY/WX    TMP DP  RH WIND       PRES   REMARKS
GREENCASTLE +  SUNNY     75  57  53 NW3       29.99S
LAFAYETTE      SUNNY     76  57  51 W7        29.97S
6HR MIN TEMP:  75; 6HR MAX TEMP:  80;

TERRE HAUTE    SUNNY     77  58  51 NW13      29.98R
6HR MIN TEMP:  77; 6HR MAX TEMP:  81;


$$

INZ030>032-037>040-046>048-054>057-064-065-100100-
CENTRAL INDIANA

CITY           SKY/WX    TMP DP  RH WIND       PRES   REMARKS
CP ATTERBURY + SUNNY     79  57  47 NW5       29.97S
GREENWOOD *+   SUNNY     79  57  47 NW9G16    29.98R
INDIANAPOLIS   MOSUNNY   76  55  48 NW12      29.97R
6HR MIN TEMP:  76; 6HR MAX TEMP:  81;

-EAGLE CREEK   SUNNY     77  54  44 NW9       29.97R
6HR MIN TEMP:  76; 6HR MAX TEMP:  80;

KOKOMO *+      SUNNY     77  55  47 W8        29.97S
MARION +       MOSUNNY   73  57  57 CALM      29.98R
MT COMFORT *+  SUNNY     75  57  53 NW8       29.98S
SHELBYVILLE    SUNNY     79  58  48 NW9       29.96R
6HR MIN TEMP:  78; 6HR MAX TEMP:  83;

ZIONSVILLE +   SUNNY     76  54  46 NW9       29.99R
6HR MIN TEMP:  76; 6HR MAX TEMP:  80;


$$

INZ033-034-041-042-049-050-058-059-100100-
EAST CENTRAL INDIANA

CITY           SKY/WX    TMP DP  RH WIND       PRES   REMARKS
MUNCIE         SUNNY     76  56  49 W8        29.97R
6HR MIN TEMP:  76; 6HR MAX TEMP:  80;


$$

INZ060-061-067>069-081>083-085>088-100100-
SOUTHWEST INDIANA

CITY           SKY/WX    TMP DP  RH WIND       PRES   REMARKS
EVANSVILLE     SUNNY     84  59  42 W5        29.97R
6HR MIN TEMP:  83; 6HR MAX TEMP:  86;

HUNTINGBURG *+ SUNNY     82  63  51 NW5       29.97R
6HR MIN TEMP:  82; 6HR MAX TEMP:  86;

WASHINGTON +   SUNNY     78  65  64 N5        29.96R
6HR MIN TEMP:  78; 6HR MAX TEMP:  83;


$$

INZ062-063-066-070>080-084-089>092-100100-
SOUTH CENTRAL AND SOUTHEAST INDIANA

CITY           SKY/WX    TMP DP  RH WIND       PRES   REMARKS
BLOOMINGTON    SUNNY     78  60  53 VRB3      29.98R
6HR MIN TEMP:  76; 6HR MAX TEMP:  81;


$$



USA.gov is the U.S. government's official web portal to all federal, state and local government web resources and services.